Wind_Speed
14 14 14 14 14 14 14 15 15 15 15 15 14 14 13 13 12 12 11 10 10 10 9 9 9 8 8 7 7 6 7 6 6 6 6 6 5 5 4 4 5 5 5
14 14 13 12 13 13 13 14 14 14 14 14 13 13 12 12 11 11 10 10 9 9 8 8 8 8 7 7 6 6 6 5 5 5 6 5 5 4 4 4 5 5 5
12 12 12 12 12 12 12 12 13 13 13 12 12 12 11 11 10 10 10 9 8 8 8 7 8 7 7 6 5 5 5 5 5 5 5 5 5 5 4 4 4 5 5
11 11 11 11 11 11 11 11 11 11 11 11 11 11 10 10 9 9 9 8 7 7 7 7 7 7 6 6 5 5 5 5 5 5 5 5 5 5 4 4 4 4 4
11 10 10 10 10 10 10 10 10 10 10 10 9 10 9 9 8 8 8 7 6 7 6 6 6 6 5 5 5 5 5 5 5 5 5 5 5 5 5 5 4 4 4
10 9 9 9 9 9 9 9 9 9 9 9 8 9 8 8 7 7 7 6 6 6 6 5 5 5 5 5 5 5 5 4 5 5 5 5 4 4 5 5 4 4 4
9 9 8 8 8 8 8 8 8 8 8 8 8 8 7 7 6 6 6 5 5 5 5 5 4 4 5 4 4 5 4 4 4 4 4 4 4 4 5 5 4 4 3
8 8 8 7 7 7 7 7 7 7 7 7 7 7 7 6 6 5 5 5 5 5 4 4 4 4 4 4 4 4 4 4 4 3 3 3 3 3 4 4 4 3 3
7 7 7 6 6 6 6 6 7 7 7 7 7 6 6 5 5 4 4 4 4 4 4 3 3 3 3 3 3 3 3 3 3 3 3 3 3 3 3 4 4 4 4
6 6 5 5 5 5 5 6 6 6 6 6 6 5 5 4 3 3 3 3 3 3 3 3 3 2 3 3 2 3 3 3 3 2 3 3 3 2 3 3 3 4 4
5 4 5 5 5 4 4 5 5 5 5 5 5 4 4 3 3 2 2 2 2 2 2 2 2 2 2 2 2 2 2 3 2 2 3 3 3 3 2 3 3 3 3
4 4 4 4 4 4 4 5 5 4 4 4 4 3 3 2 1 1 1 1 1 1 1 1 1 1 1 2 1 2 2 3 2 2 2 3 3 3 3 3 3 3 3
3 3 4 4 4 4 4 4 4 4 4 3 3 2 2 2 1 1 1 1 1 1 1 1 1 1 1 1 1 1 2 2 2 2 2 2 2 2 2 2 2 2 3
2 2 3 3 4 4 4 4 4 3 3 3 2 2 2 2 2 2 2 2 2 2 2 2 2 2 1 1 1 1 1 2 2 2 2 1 1 2 2 2 2 2 3
2 2 2 3 4 4 4 4 3 3 3 3 3 2 2 2 2 2 3 3 3 3 3 3 3 3 2 1 1 2 2 2 2 2 2 1 2 2 2 3 2 3 3
1 2 2 3 4 4 4 3 3 3 4 4 3 3 3 3 3 3 4 4 4 3 3 3 3 3 3 2 3 3 3 3 3 2 2 2 2 3 3 3 3 4 4
2 3 3 3 4 4 4 4 4 4 5 5 5 4 4 4 3 4 4 4 4 4 4 4 4 4 4 3 3 4 4 4 4 3 3 3 3 3 3 3 4 4 5
3 4 4 4 5 5 5 5 5 5 5 6 6 6 5 5 5 5 5 5 5 5 4 4 4 4 4 4 4 4 4 4 4 4 4 3 3 3 3 4 4 5 5
5 5 5 6 6 6 7 6 6 7 7 7 7 7 7 7 6 6 6 5 5 5 5 5 5 5 5 5 5 5 5 5 5 5 5 4 4 4 4 5 5 6 6
6 7 7 7 7 7 7 7 8 8 9 8 8 8 8 8 8 8 7 7 6 6 6 6 6 6 6 6 6 6 6 6 6 6 5 5 5 5 5 6 6 6 6
7 7 7 7 8 8 8 9 9 9 9 9 9 10 9 9 9 9 9 8 8 8 8 8 7 7 7 7 7 7 6 6 6 6 6 6 6 6 6 6 6 7 7
8 8 8 9 8 8 9 10 10 10 10 10 10 10 10 9 9 9 9 9 9 10 10 9 9 9 8 8 7 7 7 7 7 7 6 6 7 7 7 7 7 7 7
9 9 9 10 9 9 9 10 10 10 10 10 9 9 10 9 9 9 9 10 10 10 10 10 10 9 9 8 8 8 9 9 8 8 8 8 8 8 8 9 8 8 8
10 11 11 11 11 10 10 10 10 10 10 9 9 9 9 10 10 10 11 10 10 10 10 10 10 10 10 9 9 9 9 9 10 9 9 8 9 9 9 9 9 9 10
12 12 12 12 12 12 11 11 11 10 10 10 9 9 9 10 10 10 10 10 10 10 10 10 10 11 10 9 9 9 9 9 9 10 10 10 10 10 10 10 10 11 11
12 12 13 13 13 13 12 12 12 11 11 11 11 10 10 11 11 11 10 10 10 10 10 10 10 10 11 10 10 9 10 10 10 10 10 11 11 11 11 11 11 12 11
Wind_Direction
101 102 101 105 106 107 107 107 106 105 103 101 100 98 97 96 98 100 98 96 94 95 94 93 90 86 82 84 88 87 88 85 81 77 72 63 59 69 79 74 75 79 81
103 105 105 107 108 109 109 108 107 107 105 103 101 100 98 97 97 96 95 94 93 95 96 93 87 85 81 82 87 87 83 81 80 75 69 61 63 65 67 65 66 77 77
105 106 107 109 110 111 111 110 109 107 106 104 102 101 100 100 101 98 93 96 97 98 99 93 89 87 84 83 84 83 80 78 78 71 70 66 64 59 55 62 63 76 77
106 109 110 112 114 114 114 113 112 110 108 106 104 102 101 101 100 98 99 103 104 104 102 94 89 85 81 79 80 78 78 75 74 70 67 65 62 58 57 53 62 85 82
106 109 113 115 117 117 117 117 115 113 111 109 107 104 103 103 102 99 101 104 106 106 101 94 90 83 80 79 78 75 75 76 75 73 67 63 59 60 55 53 77 81 80
108 108 113 117 120 121 122 120 118 115 113 111 108 107 105 104 101 98 97 98 101 100 99 96 87 79 77 74 74 75 78 78 74 70 68 64 62 62 55 60 71 73 70
109 111 114 119 124 124 124 125 122 120 117 113 108 108 108 107 103 99 94 95 98 97 93 92 84 77 72 69 69 75 80 76 74 71 68 62 60 62 57 62 70 71 64
111 115 117 119 123 125 127 128 129 127 122 118 113 110 110 108 104 96 92 96 96 90 86 83 80 75 69 63 66 72 67 66 70 69 64 59 60 71 66 57 66 70 65
117 120 120 124 127 128 129 132 130 129 128 124 120 114 111 109 102 97 97 97 93 85 76 71 68 68 63 58 65 66 62 58 62 59 54 56 66 73 69 62 59 59 58
126 126 127 131 133 132 132 134 133 132 130 126 124 121 116 110 100 106 111 102 93 87 76 67 67 72 64 54 54 57 57 59 60 63 57 56 64 68 69 67 65 62 57
132 135 142 146 145 144 140 137 134 133 132 132 133 130 123 110 103 113 119 109 100 96 81 65 51 55 52 46 47 55 62 59 55 63 52 51 50 54 64 63 69 64 56
137 147 157 164 166 159 150 145 143 147 147 146 146 146 145 135 122 131 112 115 103 93 84 65 47 25 23 26 33 48 51 47 48 44 47 46 47 51 53 60 54 61 48
139 155 170 182 187 174 165 159 158 165 166 170 171 172 181 197 242 262 294 313 321 309 282 276 332 346 335 348 3 19 23 24 23 32 34 30 36 35 40 43 33 30 25
137 158 167 190 195 182 177 180 179 186 191 197 203 210 215 223 249 275 280 298 300 293 284 282 293 311 331 337 336 343 349 343 354 358 359 360 14 12 8 3 2 351 346
139 159 170 189 191 189 192 192 198 211 222 232 239 232 237 244 262 279 289 292 286 287 285 291 282 292 297 293 292 302 304 321 327 326 331 321 322 334 334 333 340 344 336
201 196 206 204 203 203 208 213 226 235 242 247 247 246 254 265 273 279 280 285 276 272 278 286 280 276 283 284 281 280 282 293 297 307 308 306 296 303 314 316 320 324 324
243 235 225 225 218 226 236 242 250 253 252 251 253 254 257 267 276 283 283 279 271 265 265 274 276 277 280 286 285 282 287 288 287 292 295 297 287 285 292 306 311 315 316
255 253 253 249 243 243 249 257 256 260 260 253 254 254 258 265 273 280 279 278 268 260 265 274 275 277 276 279 283 288 288 287 287 294 292 290 284 283 288 298 302 305 303
267 259 257 262 259 254 253 259 263 263 263 259 257 258 263 270 271 274 278 275 269 265 268 274 274 276 275 277 277 279 281 286 288 293 293 289 281 279 284 293 298 302 298
276 271 264 262 263 264 262 262 262 262 261 264 262 264 268 273 273 272 274 274 268 260 262 269 270 274 278 283 280 275 277 281 289 293 291 290 286 284 288 292 294 301 305
284 281 275 269 273 271 268 267 267 262 259 262 263 263 268 273 273 271 273 272 265 257 259 264 269 274 277 278 278 275 275 282 287 291 290 291 286 285 291 292 291 295 301
285 282 283 280 281 276 273 271 268 262 261 262 263 262 265 270 272 271 271 273 269 263 261 262 264 268 271 271 274 276 271 272 278 285 292 294 290 287 291 293 291 293 294
283 281 281 282 278 275 274 275 270 264 259 261 265 264 265 265 265 271 275 276 274 268 264 264 265 267 270 272 273 273 272 271 274 279 290 291 291 289 291 293 290 292 292
281 281 281 281 279 276 276 274 268 266 262 263 268 269 268 266 268 273 275 278 277 271 267 267 267 267 269 273 273 269 269 272 274 278 283 288 293 293 289 290 291 290 290
282 281 280 281 280 281 278 277 266 265 266 266 268 268 270 270 270 275 279 276 276 274 272 269 268 268 268 271 269 266 267 271 272 277 281 284 291 294 292 291 292 295 293
282 284 283 281 279 281 277 276 267 263 265 265 266 267 269 271 270 273 280 278 271 272 273 274 275 270 268 266 266 264 266 268 272 278 281 285 289 291 291 292 294 294 294
Height
5893 5893 5894 5895 5895 5895 5896 5896 5896 5897 5897 5897 5898 5898 5899 5899 5899 5899 5899 5899 5899 5899 5899 5899 5900 5900 5900 5900 5899 5899 5899 5899 5899 5899 5898 5898 5897 5897 5896 5896 5895 5895 5894
5894 5895 5896 5897 5897 5897 5898 5898 5898 5899 5899 5899 5899 5900 5900 5900 5900 5900 5900 5900 5901 5901 5901 5901 5901 5901 5901 5901 5901 5901 5900 5900 5900 5899 5899 5898 5898 5898 5897 5896 5896 5896 5895
5896 5897 5898 5898 5899 5899 5899 5900 5900 5900 5901 5901 5901 5901 5902 5902 5902 5902 5902 5902 5902 5902 5902 5902 5902 5903 5902 5902 5902 5901 5901 5901 5901 5900 5900 5899 5899 5898 5898 5897 5897 5897 5896
5898 5899 5899 5900 5900 5901 5901 5901 5901 5902 5902 5902 5902 5903 5903 5903 5903 5903 5903 5903 5903 5903 5903 5903 5903 5904 5903 5903 5902 5902 5902 5902 5901 5901 5901 5900 5900 5899 5899 5898 5898 5897 5897
5900 5900 5900 5901 5902 5902 5902 5902 5903 5903 5903 5903 5903 5904 5904 5904 5904 5904 5904 5904 5904 5905 5904 5904 5904 5904 5904 5904 5903 5903 5903 5903 5902 5902 5901 5901 5900 5900 5899 5899 5898 5898 5898
5901 5901 5902 5902 5903 5903 5903 5904 5904 5904 5904 5904 5905 5905 5905 5905 5905 5905 5905 5905 5905 5905 5905 5905 5905 5905 5905 5904 5904 5904 5903 5903 5903 5902 5902 5902 5901 5901 5900 5900 5900 5899 5899
5902 5902 5903 5903 5904 5904 5904 5905 5905 5905 5905 5905 5906 5906 5906 5906 5906 5906 5906 5906 5906 5906 5906 5906 5906 5905 5905 5905 5904 5904 5904 5904 5903 5903 5902 5902 5902 5901 5901 5901 5900 5900 5900
5903 5903 5904 5904 5905 5905 5905 5906 5906 5906 5906 5906 5906 5906 5907 5907 5907 5907 5907 5907 5907 5907 5907 5906 5906 5906 5905 5905 5905 5905 5905 5904 5904 5903 5903 5903 5902 5902 5902 5901 5901 5901 5900
5904 5904 5905 5905 5905 5906 5906 5906 5906 5906 5907 5907 5907 5907 5908 5908 5908 5908 5908 5908 5907 5907 5907 5907 5907 5906 5906 5906 5905 5905 5905 5905 5904 5904 5903 5903 5902 5902 5902 5902 5902 5901 5901
5905 5905 5906 5906 5906 5906 5907 5907 5907 5907 5907 5908 5908 5908 5908 5908 5908 5908 5908 5908 5908 5908 5907 5907 5907 5907 5907 5906 5906 5906 5905 5905 5905 5904 5904 5903 5903 5903 5902 5902 5902 5902 5901
5905 5906 5906 5906 5907 5907 5907 5907 5907 5907 5908 5908 5908 5909 5909 5909 5909 5909 5909 5908 5908 5908 5908 5908 5907 5907 5907 5906 5906 5906 5906 5905 5905 5904 5904 5904 5903 5903 5903 5902 5902 5902 5902
5906 5906 5906 5907 5907 5907 5907 5907 5908 5908 5909 5909 5909 5909 5909 5909 5909 5909 5909 5909 5909 5908 5908 5908 5908 5907 5907 5907 5906 5906 5906 5905 5905 5904 5904 5904 5904 5903 5903 5903 5902 5902 5902
5906 5906 5906 5907 5907 5907 5908 5908 5908 5909 5909 5909 5909 5909 5909 5909 5909 5909 5909 5909 5908 5908 5908 5908 5907 5907 5907 5907 5906 5906 5905 5905 5905 5904 5904 5904 5904 5904 5903 5903 5903 5902 5902
5906 5906 5906 5907 5907 5908 5908 5909 5909 5909 5909 5909 5909 5909 5909 5909 5909 5909 5909 5908 5908 5908 5908 5907 5907 5907 5907 5906 5906 5905 5905 5905 5905 5905 5904 5904 5904 5904 5903 5903 5902 5902 5902
5906 5907 5907 5907 5907 5908 5908 5909 5909 5909 5909 5909 5909 5909 5909 5909 5909 5909 5908 5908 5908 5907 5907 5907 5906 5906 5906 5906 5905 5905 5905 5905 5905 5904 5904 5904 5903 5903 5903 5902 5902 5902 5901
5906 5907 5907 5907 5907 5907 5908 5908 5909 5909 5909 5909 5909 5909 5909 5909 5908 5908 5908 5907 5907 5907 5906 5906 5906 5905 5905 5905 5905 5905 5905 5905 5904 5904 5904 5903 5903 5902 5902 5902 5902 5901 5901
5906 5906 5906 5907 5907 5907 5907 5908 5908 5908 5908 5908 5908 5908 5908 5908 5908 5907 5907 5906 5906 5906 5905 5905 5905 5905 5905 5904 5905 5904 5904 5904 5903 5903 5903 5902 5902 5902 5901 5901 5901 5901 5900
5905 5906 5906 5906 5906 5906 5906 5907 5907 5907 5907 5907 5907 5907 5907 5907 5907 5906 5906 5905 5904 5905 5905 5905 5904 5904 5904 5904 5904 5904 5903 5903 5903 5902 5902 5902 5901 5901 5901 5901 5900 5900 5900
5905 5905 5905 5905 5905 5905 5905 5905 5905 5906 5906 5906 5906 5906 5906 5906 5906 5905 5905 5904 5904 5904 5904 5904 5904 5903 5903 5903 5903 5902 5902 5902 5902 5901 5901 5901 5900 5900 5900 5900 5899 5899 5899
5904 5904 5904 5904 5903 5903 5904 5904 5904 5904 5904 5904 5904 5904 5904 5904 5904 5904 5903 5903 5903 5903 5903 5903 5903 5902 5902 5902 5901 5901 5901 5901 5901 5900 5900 5900 5899 5899 5899 5899 5898 5898 5897
5903 5903 5903 5902 5902 5902 5902 5902 5902 5902 5902 5902 5902 5902 5902 5902 5902 5902 5902 5901 5901 5902 5902 5901 5901 5901 5901 5900 5900 5900 5900 5900 5899 5899 5899 5899 5898 5898 5898 5897 5897 5896 5896
5902 5901 5901 5901 5900 5900 5900 5900 5900 5900 5900 5900 5900 5900 5900 5900 5900 5900 5900 5900 5900 5900 5900 5900 5899 5899 5899 5899 5899 5898 5898 5899 5898 5898 5898 5898 5897 5897 5896 5896 5895 5895 5894
5900 5900 5900 5899 5899 5898 5898 5898 5898 5898 5898 5898 5898 5898 5898 5898 5898 5898 5898 5898 5898 5898 5898 5898 5897 5897 5897 5897 5897 5897 5897 5897 5897 5897 5896 5896 5896 5895 5895 5894 5894 5893 5892
5898 5898 5897 5897 5897 5896 5896 5896 5896 5896 5896 5896 5896 5896 5896 5896 5896 5896 5896 5896 5895 5895 5895 5895 5895 5895 5895 5895 5895 5895 5895 5895 5895 5895 5895 5894 5894 5894 5893 5892 5892 5891 5890
5896 5895 5895 5895 5895 5894 5894 5894 5894 5894 5894 5894 5894 5894 5894 5894 5894 5894 5893 5893 5893 5893 5893 5893 5893 5893 5893 5893 5893 5893 5893 5893 5893 5893 5893 5893 5892 5892 5891 5890 5890 5889 5888
5893 5893 5892 5892 5892 5892 5891 5891 5891 5892 5891 5892 5892 5892 5891 5891 5892 5891 5891 5891 5891 5891 5891 5891 5891 5890 5890 5891 5891 5891 5891 5891 5891 5891 5891 5891 5890 5890 5889 5888 5888 5887 5886